Flag for Austria Weather past 2 weeks in Oberpullendorf, Burgenland, Austria

Now
50 °F

Overcast.


Feels Like: 50 °F
Forecast: 37 / 55 °F
Wind: 1 mph from Southeast

Location: Eisenstadt

Current Time: Mar 30, 2015 at 11:47:55 AM

Latest Report: Mar 30, 2015 at 11:00 AM


Visibility: 11 mi

Pressure: 29.50 "Hg

Humidity: 84%

Dew point: 45 °F

Location of OberpullendorfLocation

Historic Weather in Oberpullendorf — Graph

°F

Oberpullendorf temperature yesterday

Maximum temperature yesterday: 56 °F (at 5:00 PM)
Minimum temperature yesterday: 36 °F (at 1:00 AM)
Average temperature yesterday: 46 °F

Past Weeks' High & Low Weather Summary

 TemperatureHumidityPressure
High64 °F (Mar 26, 4:00 PM)94% (Mar 26, 10:00 PM)30.53 "Hg (Mar 26, 10:00 PM)
Low31 °F (Mar 19, 6:00 AM)36% (Mar 18, 4:00 PM)29.50 "Hg (Mar 30, 4:00 AM)
Average46 °F67%30.08 "Hg
* Reported Mar 15 9:00 AM — Mar 30 10:00 AM, Oberpullendorf, Weather by CustomWeather, © 2015

Note: Actual official high and low records may vary slightly from our data, if they occured in-between our weather recording intervals... More about our weather records

Advertising

Oberpullendorf weather history for previous 24 hours

 ConditionsComfort  
Time TempWeatherWind HumidityBarometerVisibility
10:00 AM
Mon, Mar 30
49 °FSprinkles. Cloudy.6 mph80%29.50 "HgN/A
9:00 AM50 °FCool.6 mph79%29.50 "HgN/A
8:00 AM56 °FOvercast.6 mph59%29.50 "Hg9 mi
7:00 AM49 °FOvercast.1 mph82%29.50 "Hg9 mi
6:00 AM49 °FOvercast.2 mph83%29.50 "Hg9 mi
5:00 AM49 °FOvercast.3 mph87%29.50 "Hg9 mi
4:00 AM48 °FOvercast.2 mph90%29.50 "Hg9 mi
3:00 AM49 °FCool.2 mph88%29.55 "HgN/A
2:00 AM48 °FOvercast.2 mph90%29.57 "Hg9 mi
1:00 AM49 °FCool.2 mph89%29.59 "HgN/A
12:00 AM49 °FCool.1 mph87%29.62 "HgN/A
11:00 PM
Sun, Mar 29
51 °FOvercast.1 mph82%29.65 "Hg9 mi
10:00 PM53 °FCool.5 mph76%29.67 "HgN/A
9:00 PM50 °FCool.5 mph84%29.69 "HgN/A
8:00 PM51 °FOvercast.5 mph88%29.70 "Hg9 mi
7:00 PM54 °FLight rain. Overcast.1 mph78%29.70 "Hg9 mi
6:00 PM56 °FCool.1 mph63%29.70 "HgN/A
5:00 PM56 °FOvercast.1 mph60%29.71 "Hg11 mi
4:00 PM56 °FCool.1 mph60%29.74 "HgN/A
3:00 PM53 °FCool.2 mph65%29.77 "HgN/A
2:00 PM53 °FOvercast.1 mph60%29.80 "Hg9 mi
1:00 PM52 °FCool.2 mph64%29.81 "HgN/A
12:00 PM49 °FCool.1 mph73%29.85 "HgN/A
11:00 AM46 °FCool.1 mph74%29.88 "HgN/A
Weather by CustomWeather, © 2015

See weather overviewHow to use our weather pages